This is the latest recevied weather packets stored in our database for station/object VU2IB-13. If no packets are shown the sender has not sent any weather packets the latest 1 day(s).
| Time | Temp. | Humidity | Pressure | Rain* | Wind** | Luminosity | Snow |
|---|---|---|---|---|---|---|---|
| 1778026777 | 26.67° C | 78% | 1008 hPa | - | - | - | - |
| 1778026655 | 26.67° C | 78% | 1007.9 hPa | - | - | - | - |
| 1778026594 | 26.67° C | 78% | 1007.9 hPa | - | - | - | - |
| 1778026532 | 26.67° C | 78% | 1007.9 hPa | - | - | - | - |
| 1778026471 | 26.67° C | 78% | 1007.9 hPa | - | - | - | - |
| 1778026278 | 26.11° C | 80% | 1008 hPa | - | - | - | - |
| 1778026217 | 26.11° C | 80% | 1007.8 hPa | - | - | - | - |
| 1778026156 | 26.11° C | 79% | 1007.8 hPa | - | - | - | - |
| 1778025850 | 26.67° C | 77% | 1007.8 hPa | - | - | - | - |
| 1778025789 | 26.67° C | 77% | 1007.7 hPa | - | - | - | - |
| 1778025360 | 26.67° C | 77% | 1007.7 hPa | - | - | - | - |
| 1778025298 | 26.11° C | 77% | 1007.7 hPa | - | - | - | - |
| 1778025176 | 26.67° C | 77% | 1007.7 hPa | - | - | - | - |
| 1778024990 | 26.67° C | 76% | 1007.8 hPa | - | - | - | - |
| 1778024678 | 26.67° C | 76% | 1007.7 hPa | - | - | - | - |
| 1778024617 | 26.67° C | 76% | 1007.6 hPa | - | - | - | - |
| 1778024430 | 26.67° C | 77% | 1007.7 hPa | - | - | - | - |
| 1778024229 | 26.67° C | 76% | 1007.7 hPa | - | - | - | - |
| 1778024167 | 26.67° C | 76% | 1007.7 hPa | - | - | - | - |
| 1778024106 | 26.67° C | 76% | 1007.7 hPa | - | - | - | - |
| 1778023798 | 26.67° C | 76% | 1007.6 hPa | - | - | - | - |
| 1778023484 | 26.67° C | 79% | 1007.5 hPa | - | - | - | - |
| 1778023423 | 26.67° C | 78% | 1007.5 hPa | - | - | - | - |
| 1778023298 | 26.67° C | 77% | 1007.4 hPa | - | - | - | - |
| 1778023236 | 26.67° C | 77% | 1007.3 hPa | - | - | - | - |
* Rain since midnight (hover to see other rain measurements)
** Current wind speed in m/s (hover to see current wind gust speed)